| time (UTC) | temp F | wind direction | speed MPH | gust MPH | rain 1hr in | rain 24hr in | rain mn in | humidity % | barometer mb |
| 20260507105240 | 66 | 300 | 0.0 | 0.0 | 0.00 | 0.00 | 0.00 | 51 | 1011.8 |
| 20260507104740 | 66 | 300 | 0.0 | 0.0 | 0.00 | 0.00 | 0.00 | 49 | 1011.9 |
| 20260507104240 | 66 | 300 | 0.0 | 0.0 | 0.00 | 0.00 | 0.00 | 49 | 1012.0 |
| 20260507103740 | 66 | 300 | 0.0 | 0.0 | 0.00 | 0.00 | 0.00 | 52 | 1011.9 |
| 20260507103240 | 66 | 300 | 0.0 | 0.0 | 0.00 | 0.00 | 0.00 | 52 | 1012.1 |
| 20260507102740 | 65 | 300 | 0.0 | 0.0 | 0.00 | 0.00 | 0.00 | 52 | 1012.1 |
| 20260507102240 | 65 | 300 | 0.0 | 0.0 | 0.00 | 0.00 | 0.00 | 51 | 1012.0 |
| 20260507101740 | 65 | 300 | 0.0 | 0.0 | 0.00 | 0.00 | 0.00 | 55 | 1012.1 |
| 20260507101240 | 65 | 300 | 0.0 | 0.0 | 0.00 | 0.00 | 0.00 | 53 | 1012.2 |
| 20260507100740 | 65 | 300 | 0.0 | 0.0 | 0.00 | 0.00 | 0.00 | 54 | 1012.2 |
| 20260507100240 | 65 | 300 | 0.0 | 0.0 | 0.00 | 0.00 | 0.00 | 54 | 1012.2 |
| 20260507095741 | 65 | 300 | 0.0 | 0.0 | 0.00 | 0.00 | 0.00 | 54 | 1012.2 |
| 20260507095240 | 65 | 300 | 0.0 | 0.0 | 0.00 | 0.00 | 0.00 | 55 | 1012.2 |
| 20260507094740 | 65 | 300 | 0.0 | 0.0 | 0.00 | 0.00 | 0.00 | 56 | 1012.2 |
| 20260507094241 | 65 | 300 | 0.0 | 0.0 | 0.00 | 0.00 | 0.00 | 54 | 1012.2 |
| 20260507093741 | 65 | 300 | 0.0 | 0.0 | 0.00 | 0.00 | 0.00 | 54 | 1012.2 |
| 20260507093241 | 65 | 300 | 0.0 | 0.0 | 0.00 | 0.00 | 0.00 | 53 | 1012.3 |
| 20260507092741 | 64 | 300 | 0.0 | 0.0 | 0.00 | 0.00 | 0.00 | 54 | 1012.3 |
| 20260507092241 | 65 | 300 | 0.0 | 0.0 | 0.00 | 0.00 | 0.00 | 54 | 1012.2 |
| 20260507091741 | 65 | 300 | 0.0 | 0.0 | 0.00 | 0.00 | 0.00 | 53 | 1012.1 |
| 20260507091241 | 65 | 300 | 0.0 | 0.0 | 0.00 | 0.00 | 0.00 | 53 | 1012.2 |
| 20260507090741 | 65 | 300 | 0.0 | 0.0 | 0.00 | 0.00 | 0.00 | 53 | 1012.1 |
| 20260507090241 | 65 | 300 | 0.0 | 0.0 | 0.00 | 0.00 | 0.00 | 52 | 1012.0 |
| 20260507085741 | 65 | 300 | 0.0 | 8.0 | 0.00 | 0.00 | 0.00 | 54 | 1012.0 |
| 20260507085241 | 65 | 37 | 0.0 | 5.0 | 0.00 | 0.00 | 0.00 | 54 | 1012.0 |
| 20260507084741 | 64 | 320 | 0.0 | 0.0 | 0.00 | 0.00 | 0.00 | 55 | 1012.0 |
| 20260507084241 | 64 | 320 | 0.0 | 0.0 | 0.00 | 0.00 | 0.00 | 54 | 1012.0 |
| 20260507083741 | 64 | 320 | 0.0 | 0.0 | 0.00 | 0.00 | 0.00 | 52 | 1012.1 |
| 20260507083241 | 64 | 320 | 0.0 | 0.0 | 0.00 | 0.00 | 0.00 | 56 | 1012.0 |
| 20260507082741 | 64 | 320 | 0.0 | 6.0 | 0.00 | 0.00 | 0.00 | 56 | 1012.0 |
| 20260507082241 | 63 | 196 | 0.0 | 0.0 | 0.00 | 0.00 | 0.00 | 57 | 1011.9 |
| 20260507081741 | 63 | 196 | 0.0 | 0.0 | 0.00 | 0.00 | 0.00 | 55 | 1012.0 |
| 20260507081241 | 64 | 196 | 0.0 | 1.0 | 0.00 | 0.00 | 0.00 | 56 | 1011.9 |
| 20260507080741 | 63 | 320 | 0.0 | 5.0 | 0.00 | 0.00 | 0.00 | 59 | 1011.9 |
| 20260507080241 | 62 | 350 | 0.0 | 5.0 | 0.00 | 0.00 | 0.00 | 58 | 1011.9 |
| 20260507075741 | 63 | 315 | 3.0 | 6.0 | 0.00 | 0.00 | 0.00 | 60 | 1011.9 |
| 20260507075241 | 62 | 319 | 2.0 | 6.0 | 0.00 | 0.00 | 0.00 | 61 | 1011.9 |
| 20260507074741 | 62 | 333 | 0.0 | 5.0 | 0.00 | 0.00 | 0.00 | 63 | 1011.9 |
| 20260507074241 | 61 | 323 | 5.0 | 5.0 | 0.00 | 0.00 | 0.00 | 64 | 1011.8 |
| 20260507073741 | 62 | 1 | 0.0 | 4.0 | 0.00 | 0.00 | 0.00 | 66 | 1011.8 |
| 20260507073241 | 61 | 323 | 4.0 | 6.0 | 0.00 | 0.00 | 0.00 | 67 | 1011.8 |
| 20260507072741 | 61 | 347 | 0.0 | 0.0 | 0.00 | 0.00 | 0.00 | 68 | 1011.8 |
| 20260507072241 | 61 | 347 | 0.0 | 0.0 | 0.00 | 0.00 | 0.00 | 69 | 1011.8 |
| 20260507071741 | 60 | 347 | 0.0 | 0.0 | 0.00 | 0.00 | 0.00 | 71 | 1011.9 |
| 20260507071241 | 60 | 347 | 0.0 | 0.0 | 0.00 | 0.00 | 0.00 | 71 | 1011.9 |
| 20260507070741 | 59 | 347 | 0.0 | 0.0 | 0.00 | 0.00 | 0.00 | 73 | 1011.8 |
| 20260507070241 | 59 | 347 | 0.0 | 0.0 | 0.00 | 0.00 | 0.00 | 74 | 1011.7 |
| 20260507065741 | 59 | 347 | 0.0 | 0.0 | 0.00 | 0.00 | 0.00 | 76 | 1011.7 |
| 20260507065241 | 59 | 347 | 0.0 | 0.0 | 0.00 | 0.00 | 0.00 | 80 | 1011.6 |
| 20260507064741 | 59 | 347 | 0.0 | 0.0 | 0.00 | 0.00 | 0.00 | 80 | 1011.6 |
| 20260507064241 | 59 | 347 | 0.0 | 0.0 | 0.00 | 0.00 | 0.00 | 81 | 1011.6 |
| 20260507063741 | 59 | 347 | 0.0 | 0.0 | 0.00 | 0.00 | 0.00 | 83 | 1011.6 |
| 20260507063241 | 59 | 347 | 0.0 | 0.0 | 0.00 | 0.00 | 0.00 | 85 | 1011.5 |
| 20260507062741 | 58 | 347 | 0.0 | 0.0 | 0.00 | 0.00 | 0.00 | 86 | 1011.6 |
| 20260507062241 | 58 | 347 | 0.0 | 0.0 | 0.00 | 0.00 | 0.00 | 87 | 1011.5 |
| 20260507061741 | 58 | 347 | 0.0 | 0.0 | 0.00 | 0.00 | 0.00 | 87 | 1011.4 |
| 20260507061241 | 58 | 347 | 0.0 | 0.0 | 0.00 | 0.00 | 0.00 | 88 | 1011.5 |
| 20260507060741 | 56 | 347 | 0.0 | 0.0 | 0.00 | 0.00 | 0.00 | 89 | 1011.6 |
| 20260507060241 | 56 | 347 | 0.0 | 0.0 | 0.00 | 0.00 | 0.00 | 89 | 1011.6 |
| 20260507055741 | 55 | 347 | 0.0 | 0.0 | 0.00 | 0.00 | 0.00 | 90 | 1011.6 |
| 20260507055241 | 55 | 347 | 0.0 | 0.0 | 0.00 | 0.00 | 0.00 | 90 | 1011.6 |
| 20260507054741 | 55 | 347 | 0.0 | 0.0 | 0.00 | 0.00 | 0.00 | 90 | 1011.6 |
| 20260507054241 | 55 | 347 | 0.0 | 0.0 | 0.00 | 0.00 | 0.00 | 89 | 1011.5 |
| 20260507053741 | 55 | 347 | 0.0 | 0.0 | 0.00 | 0.00 | 0.00 | 90 | 1011.5 |
| 20260507053241 | 55 | 347 | 0.0 | 0.0 | 0.00 | 0.00 | 0.00 | 90 | 1011.5 |
| 20260507052741 | 54 | 347 | 0.0 | 0.0 | 0.00 | 0.00 | 0.00 | 91 | 1011.4 |
| 20260507052241 | 53 | 347 | 0.0 | 0.0 | 0.00 | 0.00 | 0.00 | 91 | 1011.3 |
| 20260507051741 | 53 | 347 | 0.0 | 0.0 | 0.00 | 0.00 | 0.00 | 91 | 1011.3 |
| 20260507051241 | 53 | 347 | 0.0 | 0.0 | 0.00 | 0.00 | 0.00 | 91 | 1011.3 |
| 20260507050741 | 52 | 347 | 0.0 | 0.0 | 0.00 | 0.00 | 0.00 | 91 | 1011.2 |
| 20260507050241 | 52 | 347 | 0.0 | 0.0 | 0.00 | 0.00 | 0.00 | 91 | 1011.2 |
| 20260507045741 | 52 | 347 | 0.0 | 0.0 | 0.00 | 0.00 | 0.00 | 91 | 1011.2 |
| 20260507045241 | 52 | 347 | 0.0 | 0.0 | 0.00 | 0.00 | 0.00 | 91 | 1011.1 |
| 20260507044741 | 52 | 347 | 0.0 | 0.0 | 0.00 | 0.00 | 0.00 | 91 | 1011.1 |
| 20260507044241 | 52 | 347 | 0.0 | 0.0 | 0.00 | 0.00 | 0.00 | 91 | 1011.1 |
| 20260507043741 | 52 | 347 | 0.0 | 0.0 | 0.00 | 0.00 | 0.00 | 91 | 1011.1 |
| 20260507043241 | 52 | 347 | 0.0 | 0.0 | 0.00 | 0.00 | 0.00 | 91 | 1011.0 |
| 20260507042741 | 52 | 347 | 0.0 | 0.0 | 0.00 | 0.00 | 0.00 | 91 | 1011.0 |
| 20260507042241 | 52 | 347 | 0.0 | 0.0 | 0.00 | 0.00 | 0.00 | 90 | 1011.1 |
| 20260507041741 | 53 | 347 | 0.0 | 0.0 | 0.00 | 0.00 | 0.00 | 90 | 1011.0 |
| 20260507041241 | 52 | 347 | 0.0 | 0.0 | 0.00 | 0.00 | 0.00 | 90 | 1011.0 |
| 20260507040741 | 52 | 347 | 0.0 | 0.0 | 0.00 | 0.00 | 0.00 | 90 | 1011.0 |
| 20260507040241 | 52 | 347 | 0.0 | 0.0 | 0.00 | 0.00 | 0.00 | 90 | 1011.0 |
| 20260507035741 | 53 | 347 | 0.0 | 0.0 | 0.00 | 0.00 | 0.00 | 90 | 1011.0 |
| 20260507035241 | 53 | 347 | 0.0 | 0.0 | 0.00 | 0.00 | 0.00 | 90 | 1011.0 |
| 20260507034741 | 53 | 347 | 0.0 | 0.0 | 0.00 | 0.00 | 0.00 | 90 | 1010.9 |
| 20260507034241 | 53 | 347 | 0.0 | 0.0 | 0.00 | 0.00 | 0.00 | 90 | 1010.9 |
| 20260507033741 | 53 | 347 | 0.0 | 0.0 | 0.00 | 0.00 | 0.00 | 90 | 1010.9 |
| 20260507033241 | 53 | 347 | 0.0 | 0.0 | 0.00 | 0.00 | 0.00 | 90 | 1010.9 |
| 20260507032741 | 53 | 347 | 0.0 | 0.0 | 0.00 | 0.00 | 0.00 | 90 | 1010.9 |
| 20260507032241 | 53 | 347 | 0.0 | 0.0 | 0.00 | 0.00 | 0.00 | 90 | 1010.9 |
| 20260507031741 | 53 | 347 | 0.0 | 0.0 | 0.00 | 0.00 | 0.00 | 90 | 1010.9 |
| 20260507031241 | 53 | 347 | 0.0 | 0.0 | 0.00 | 0.00 | 0.00 | 90 | 1010.8 |
| 20260507030741 | 54 | 347 | 0.0 | 0.0 | 0.00 | 0.00 | 0.00 | 89 | 1010.9 |
| 20260507030241 | 54 | 347 | 0.0 | 0.0 | 0.00 | 0.00 | 0.00 | 89 | 1010.9 |
| 20260507025741 | 54 | 347 | 0.0 | 0.0 | 0.00 | 0.00 | 0.00 | 89 | 1011.0 |
| 20260507025241 | 54 | 347 | 0.0 | 0.0 | 0.00 | 0.00 | 0.00 | 89 | 1011.0 |
| 20260507024741 | 54 | 347 | 0.0 | 0.0 | 0.00 | 0.00 | 0.00 | 89 | 1011.0 |
| 20260507024241 | 54 | 347 | 0.0 | 0.0 | 0.00 | 0.00 | 0.00 | 89 | 1011.0 |
| 20260507023741 | 54 | 347 | 0.0 | 0.0 | 0.00 | 0.00 | 0.00 | 89 | 1011.1 |
| 20260507023241 | 54 | 347 | 0.0 | 0.0 | 0.00 | 0.00 | 0.00 | 89 | 1011.1 |
| 20260507022741 | 54 | 347 | 0.0 | 0.0 | 0.00 | 0.00 | 0.00 | 88 | 1011.1 |
| 20260507022241 | 54 | 347 | 0.0 | 0.0 | 0.00 | 0.00 | 0.00 | 88 | 1011.0 |
| 20260507021741 | 54 | 347 | 0.0 | 0.0 | 0.00 | 0.00 | 0.00 | 88 | 1011.0 |
| 20260507021241 | 54 | 347 | 0.0 | 0.0 | 0.00 | 0.00 | 0.00 | 88 | 1011.0 |
| 20260507020741 | 55 | 347 | 0.0 | 0.0 | 0.00 | 0.00 | 0.00 | 88 | 1011.0 |
| 20260507020241 | 55 | 347 | 0.0 | 0.0 | 0.00 | 0.00 | 0.00 | 88 | 1011.1 |
| 20260507015741 | 55 | 347 | 0.0 | 0.0 | 0.00 | 0.00 | 0.00 | 88 | 1011.1 |
| 20260507015241 | 55 | 347 | 0.0 | 0.0 | 0.00 | 0.00 | 0.00 | 88 | 1011.1 |
| 20260507014741 | 55 | 347 | 0.0 | 0.0 | 0.00 | 0.00 | 0.00 | 87 | 1011.1 |
| 20260507014241 | 55 | 347 | 0.0 | 0.0 | 0.00 | 0.00 | 0.00 | 87 | 1011.0 |
| 20260507013741 | 55 | 347 | 0.0 | 0.0 | 0.00 | 0.00 | 0.00 | 87 | 1011.1 |
| 20260507013241 | 55 | 347 | 0.0 | 0.0 | 0.00 | 0.00 | 0.00 | 87 | 1011.1 |
| 20260507012741 | 56 | 347 | 0.0 | 0.0 | 0.00 | 0.00 | 0.00 | 87 | 1011.0 |
| 20260507012241 | 56 | 347 | 0.0 | 0.0 | 0.00 | 0.00 | 0.00 | 87 | 1011.1 |
| 20260507011741 | 55 | 347 | 0.0 | 0.0 | 0.00 | 0.00 | 0.00 | 87 | 1011.1 |
| 20260507011241 | 56 | 347 | 0.0 | 0.0 | 0.00 | 0.00 | 0.00 | 86 | 1011.1 |
| 20260507010741 | 56 | 347 | 0.0 | 0.0 | 0.00 | 0.00 | 0.00 | 86 | 1011.1 |
| 20260507010241 | 56 | 347 | 0.0 | 0.0 | 0.00 | 0.00 | 0.00 | 86 | 1011.1 |
| 20260507005741 | 56 | 347 | 0.0 | 0.0 | 0.00 | 0.00 | 0.00 | 86 | 1011.2 |
| 20260507005241 | 56 | 347 | 0.0 | 0.0 | 0.00 | 0.01 | 0.00 | 86 | 1011.3 |
| 20260507004741 | 56 | 347 | 0.0 | 0.0 | 0.00 | 0.01 | 0.00 | 86 | 1011.3 |
| 20260507004241 | 56 | 347 | 0.0 | 0.0 | 0.00 | 0.01 | 0.00 | 86 | 1011.3 |
| 20260507003741 | 56 | 347 | 0.0 | 0.0 | 0.00 | 0.01 | 0.00 | 85 | 1011.2 |
| 20260507003241 | 56 | 347 | 0.0 | 0.0 | 0.00 | 0.01 | 0.00 | 85 | 1011.2 |
| 20260507002741 | 57 | 347 | 0.0 | 0.0 | 0.00 | 0.01 | 0.00 | 85 | 1011.3 |
| 20260507002241 | 57 | 347 | 0.0 | 0.0 | 0.00 | 0.01 | 0.00 | 85 | 1011.3 |
| 20260507001741 | 57 | 347 | 0.0 | 0.0 | 0.00 | 0.01 | 0.00 | 85 | 1011.4 |
| 20260507001241 | 57 | 347 | 0.0 | 0.0 | 0.00 | 0.01 | 0.00 | 84 | 1011.3 |
| 20260507000741 | 57 | 347 | 0.0 | 0.0 | 0.00 | 0.01 | 0.00 | 84 | 1011.4 |
| 20260507000241 | 57 | 347 | 0.0 | 0.0 | 0.00 | 0.01 | 0.00 | 84 | 1011.4 |
| 20260506235741 | 57 | 347 | 0.0 | 0.0 | 0.00 | 0.01 | 0.00 | 84 | 1011.4 |
| 20260506235241 | 58 | 347 | 0.0 | 0.0 | 0.00 | 0.25 | 0.00 | 83 | 1011.4 |
| 20260506234741 | 58 | 347 | 0.0 | 0.0 | 0.00 | 0.25 | 0.00 | 83 | 1011.5 |
| 20260506234241 | 58 | 347 | 0.0 | 0.0 | 0.00 | 0.25 | 0.00 | 83 | 1011.5 |
| 20260506233741 | 58 | 347 | 0.0 | 0.0 | 0.00 | 0.25 | 0.00 | 82 | 1011.6 |
| 20260506233241 | 58 | 347 | 0.0 | 0.0 | 0.00 | 0.25 | 0.00 | 82 | 1011.6 |
| 20260506232741 | 58 | 347 | 0.0 | 0.0 | 0.00 | 0.25 | 0.00 | 82 | 1011.7 |
| 20260506232241 | 59 | 347 | 0.0 | 0.0 | 0.00 | 0.25 | 0.00 | 81 | 1011.7 |
| 20260506231741 | 59 | 347 | 0.0 | 0.0 | 0.00 | 0.25 | 0.00 | 81 | 1011.7 |
| 20260506231241 | 59 | 347 | 0.0 | 0.0 | 0.00 | 0.25 | 0.00 | 81 | 1011.7 |
| 20260506230741 | 59 | 347 | 0.0 | 0.0 | 0.00 | 0.25 | 0.00 | 81 | 1011.8 |
| 20260506230241 | 59 | 347 | 0.0 | 0.0 | 0.00 | 0.25 | 0.00 | 81 | 1011.8 |
| 20260506225742 | 59 | 347 | 0.0 | 1.0 | 0.00 | 0.25 | 0.00 | 81 | 1011.8 |
| 20260506225242 | 59 | 347 | 1.0 | 6.0 | 0.00 | 0.48 | 0.00 | 81 | 1011.8 |
| 20260506224742 | 59 | 343 | 4.0 | 10.0 | 0.00 | 0.48 | 0.00 | 81 | 1011.8 |
| 20260506224242 | 59 | 331 | 9.0 | 10.0 | 0.00 | 0.48 | 0.00 | 81 | 1011.8 |
| 20260506223741 | 59 | 345 | 0.0 | 11.0 | 0.00 | 0.48 | 0.00 | 80 | 1011.8 |
| 20260506223242 | 59 | 322 | 11.0 | 11.0 | 0.00 | 0.48 | 0.00 | 80 | 1011.9 |
| 20260506222742 | 59 | 327 | 6.0 | 9.0 | 0.00 | 0.48 | 0.00 | 80 | 1011.9 |
| 20260506222242 | 60 | 8 | 5.0 | 9.0 | 0.00 | 0.48 | 0.00 | 80 | 1011.9 |
| 20260506221742 | 60 | 323 | 6.0 | 15.0 | 0.00 | 0.48 | 0.00 | 80 | 1011.9 |
| 20260506221242 | 59 | 300 | 3.0 | 18.0 | 0.00 | 0.48 | 0.00 | 79 | 1011.9 |
| 20260506220742 | 60 | 326 | 10.0 | 11.0 | 0.00 | 0.48 | 0.00 | 79 | 1011.9 |
| 20260506220242 | 59 | 340 | 0.0 | 9.0 | 0.00 | 0.48 | 0.00 | 78 | 1011.9 |
| 20260506215742 | 60 | 330 | 5.0 | 8.0 | 0.00 | 0.48 | 0.58 | 78 | 1011.8 |
| 20260506215242 | 60 | 348 | 1.0 | 9.0 | 0.00 | 0.58 | 0.58 | 78 | 1011.9 |
| 20260506214742 | 59 | 324 | 7.0 | 13.0 | 0.00 | 0.58 | 0.58 | 79 | 1011.8 |
| 20260506214242 | 59 | 300 | 3.0 | 13.0 | 0.00 | 0.58 | 0.58 | 79 | 1011.9 |
| 20260506213742 | 59 | 344 | 2.0 | 5.0 | 0.00 | 0.58 | 0.58 | 77 | 1011.8 |
| 20260506213242 | 58 | 2 | 4.0 | 7.0 | 0.00 | 0.58 | 0.58 | 78 | 1011.8 |
| 20260506212742 | 58 | 8 | 0.0 | 4.0 | 0.00 | 0.58 | 0.58 | 76 | 1011.8 |
| 20260506212242 | 58 | 354 | 0.0 | 2.0 | 0.00 | 0.58 | 0.58 | 76 | 1011.8 |
| 20260506211742 | 59 | 21 | 0.0 | 4.0 | 0.00 | 0.58 | 0.58 | 75 | 1011.8 |
| 20260506211242 | 59 | 345 | 0.0 | 4.0 | 0.00 | 0.58 | 0.58 | 75 | 1011.8 |
| 20260506210742 | 59 | 26 | 3.0 | 4.0 | 0.00 | 0.58 | 0.58 | 74 | 1011.8 |
| 20260506210242 | 59 | 56 | 3.0 | 5.0 | 0.00 | 0.58 | 0.58 | 73 | 1011.8 |
| 20260506205742 | 60 | 333 | 1.0 | 5.0 | 0.00 | 0.58 | 0.58 | 72 | 1011.8 |
| 20260506205242 | 61 | 68 | 3.0 | 3.0 | 0.00 | 0.58 | 0.58 | 72 | 1011.8 |
| 20260506204742 | 60 | 340 | 1.0 | 8.0 | 0.00 | 0.58 | 0.58 | 72 | 1011.8 |
| 20260506204242 | 60 | 336 | 2.0 | 8.0 | 0.00 | 0.58 | 0.58 | 72 | 1011.8 |
| 20260506203742 | 60 | 322 | 7.0 | 8.0 | 0.00 | 0.58 | 0.58 | 72 | 1011.8 |
| 20260506203242 | 60 | 300 | 7.0 | 8.0 | 0.00 | 0.58 | 0.58 | 72 | 1011.7 |
| 20260506202742 | 60 | 357 | 5.0 | 7.0 | 0.00 | 0.58 | 0.58 | 71 | 1011.6 |
| 20260506202242 | 60 | 337 | 3.0 | 9.0 | 0.00 | 0.58 | 0.58 | 71 | 1011.5 |
| 20260506201742 | 60 | 337 | 5.0 | 9.0 | 0.00 | 0.58 | 0.58 | 71 | 1011.5 |
| 20260506201242 | 60 | 344 | 3.0 | 8.0 | 0.00 | 0.58 | 0.58 | 70 | 1011.4 |
| 20260506200742 | 60 | 340 | 0.0 | 7.0 | 0.00 | 0.58 | 0.58 | 70 | 1011.4 |
| 20260506200242 | 60 | 300 | 0.0 | 5.0 | 0.00 | 0.58 | 0.58 | 69 | 1011.4 |
| 20260506195742 | 60 | 334 | 2.0 | 10.0 | 0.00 | 0.58 | 0.58 | 69 | 1011.2 |
| 20260506195242 | 60 | 300 | 9.0 | 10.0 | 0.00 | 0.58 | 0.58 | 69 | 1011.2 |
| 20260506194742 | 60 | 4 | 8.0 | 10.0 | 0.00 | 0.58 | 0.58 | 70 | 1011.2 |
| 20260506194242 | 60 | 300 | 0.0 | 7.0 | 0.00 | 0.58 | 0.58 | 70 | 1011.0 |
| 20260506193742 | 60 | 300 | 0.0 | 8.0 | 0.00 | 0.58 | 0.58 | 70 | 1010.9 |
| 20260506193242 | 60 | 358 | 0.0 | 2.0 | 0.00 | 0.58 | 0.58 | 70 | 1010.8 |
| 20260506192742 | 60 | 300 | 0.0 | 5.0 | 0.00 | 0.58 | 0.58 | 70 | 1010.7 |
| 20260506192242 | 60 | 300 | 1.0 | 2.0 | 0.00 | 0.58 | 0.58 | 70 | 1010.6 |
| 20260506191742 | 60 | 300 | 0.0 | 5.0 | 0.00 | 0.58 | 0.58 | 70 | 1010.5 |
| 20260506191242 | 60 | 11 | 0.0 | 0.0 | 0.00 | 0.58 | 0.58 | 70 | 1010.5 |
| 20260506190742 | 60 | 11 | 0.0 | 0.0 | 0.00 | 0.58 | 0.58 | 69 | 1010.4 |
| 20260506190242 | 60 | 11 | 0.0 | 5.0 | 0.00 | 0.58 | 0.58 | 69 | 1010.2 |
| 20260506185742 | 60 | 350 | 2.0 | 5.0 | 0.00 | 0.58 | 0.58 | 69 | 1010.2 |
| 20260506185242 | 60 | 300 | 2.0 | 7.0 | 0.00 | 0.58 | 0.58 | 69 | 1010.1 |
| 20260506184742 | 61 | 351 | 4.0 | 9.0 | 0.00 | 0.58 | 0.58 | 69 | 1010.0 |
| 20260506184242 | 61 | 300 | 8.0 | 9.0 | 0.00 | 0.58 | 0.58 | 68 | 1010.0 |
| 20260506183742 | 61 | 333 | 7.0 | 8.0 | 0.00 | 0.58 | 0.58 | 67 | 1009.9 |
| 20260506183242 | 61 | 336 | 0.0 | 11.0 | 0.00 | 0.58 | 0.58 | 67 | 1009.9 |
| 20260506182742 | 61 | 300 | 5.0 | 11.0 | 0.00 | 0.58 | 0.58 | 66 | 1009.8 |
| 20260506182242 | 61 | 357 | 6.0 | 14.0 | 0.00 | 0.58 | 0.58 | 66 | 1009.7 |
| 20260506181742 | 62 | 320 | 0.0 | 0.0 | 0.00 | 0.58 | 0.58 | 65 | 1009.7 |
| 20260506181242 | 62 | 320 | 0.0 | 0.0 | 0.00 | 0.58 | 0.58 | 64 | 1009.6 |
| 20260506180742 | 62 | 320 | 0.0 | 0.0 | 0.00 | 0.58 | 0.58 | 64 | 1009.5 |
| 20260506180242 | 62 | 320 | 0.0 | 0.0 | 0.00 | 0.58 | 0.58 | 64 | 1009.5 |
| 20260506175742 | 62 | 320 | 0.0 | 7.0 | 0.00 | 0.58 | 0.58 | 65 | 1009.4 |
| 20260506175242 | 62 | 320 | 0.0 | 0.0 | 0.00 | 0.58 | 0.58 | 65 | 1009.4 |
| 20260506174742 | 62 | 320 | 0.0 | 0.0 | 0.00 | 0.58 | 0.58 | 64 | 1009.4 |
| 20260506174242 | 62 | 320 | 0.0 | 0.0 | 0.00 | 0.58 | 0.58 | 64 | 1009.4 |
| 20260506173742 | 62 | 320 | 0.0 | 14.0 | 0.00 | 0.58 | 0.58 | 63 | 1009.4 |
| 20260506173242 | 62 | 309 | 14.0 | 14.0 | 0.00 | 0.58 | 0.58 | 64 | 1009.4 |
| 20260506172742 | 62 | 320 | 8.0 | 15.0 | 0.00 | 0.58 | 0.58 | 63 | 1009.4 |
| 20260506172242 | 62 | 300 | 6.0 | 12.0 | 0.00 | 0.58 | 0.58 | 61 | 1009.3 |
| 20260506171742 | 63 | 300 | 0.0 | 12.0 | 0.00 | 0.58 | 0.58 | 61 | 1009.2 |
| 20260506171242 | 63 | 300 | 0.0 | 14.0 | 0.00 | 0.58 | 0.58 | 61 | 1009.2 |
| 20260506170742 | 62 | 300 | 0.0 | 15.0 | 0.00 | 0.58 | 0.58 | 60 | 1009.2 |
| 20260506170242 | 63 | 329 | 0.0 | 11.0 | 0.00 | 0.58 | 0.58 | 62 | 1009.2 |
| 20260506165742 | 62 | 300 | 0.0 | 13.0 | 0.00 | 0.58 | 0.58 | 61 | 1009.2 |
| 20260506165242 | 62 | 300 | 2.0 | 12.0 | 0.00 | 0.58 | 0.58 | 61 | 1009.1 |
| 20260506164742 | 62 | 312 | 9.0 | 15.0 | 0.00 | 0.58 | 0.58 | 60 | 1009.2 |
| 20260506164242 | 63 | 300 | 1.0 | 17.0 | 0.00 | 0.58 | 0.58 | 59 | 1009.1 |
| 20260506163742 | 63 | 300 | 0.0 | 0.0 | 0.00 | 0.58 | 0.58 | 59 | 1009.1 |
| 20260506163242 | 63 | 300 | 0.0 | 0.0 | 0.00 | 0.58 | 0.58 | 59 | 1009.2 |
| 20260506162742 | 63 | 300 | 0.0 | 12.0 | 0.00 | 0.58 | 0.58 | 60 | 1009.3 |
| 20260506162242 | 63 | 300 | 0.0 | 12.0 | 0.00 | 0.58 | 0.58 | 60 | 1009.3 |
| 20260506161742 | 63 | 300 | 0.0 | 0.0 | 0.00 | 0.58 | 0.58 | 57 | 1009.3 |
| 20260506161242 | 63 | 300 | 0.0 | 0.0 | 0.00 | 0.58 | 0.58 | 59 | 1009.3 |
| 20260506160742 | 63 | 300 | 0.0 | 4.0 | 0.00 | 0.58 | 0.58 | 60 | 1009.4 |
| 20260506160242 | 63 | 300 | 0.0 | 16.0 | 0.00 | 0.58 | 0.58 | 58 | 1009.4 |
| 20260506155742 | 63 | 300 | 0.0 | 0.0 | 0.00 | 0.58 | 0.58 | 59 | 1009.4 |
| 20260506155242 | 64 | 300 | 0.0 | 0.0 | 0.00 | 0.58 | 0.58 | 59 | 1009.4 |
| 20260506154742 | 63 | 300 | 0.0 | 0.0 | 0.00 | 0.58 | 0.58 | 61 | 1009.4 |
| 20260506154242 | 63 | 300 | 0.0 | 0.0 | 0.00 | 0.58 | 0.58 | 59 | 1009.4 |
| 20260506153742 | 63 | 300 | 0.0 | 0.0 | 0.00 | 0.58 | 0.58 | 59 | 1009.4 |
| 20260506153242 | 63 | 300 | 0.0 | 0.0 | 0.00 | 0.58 | 0.58 | 57 | 1009.3 |
| 20260506152742 | 63 | 300 | 0.0 | 18.0 | 0.00 | 0.58 | 0.58 | 59 | 1009.3 |
| 20260506152242 | 63 | 300 | 0.0 | 19.0 | 0.00 | 0.58 | 0.58 | 60 | 1009.3 |
| 20260506151742 | 63 | 300 | 0.0 | 0.0 | 0.00 | 0.58 | 0.58 | 60 | 1009.3 |
| 20260506151242 | 63 | 300 | 0.0 | 2.0 | 0.00 | 0.58 | 0.58 | 59 | 1009.3 |
| 20260506150742 | 63 | 338 | 0.0 | 19.0 | 0.00 | 0.58 | 0.58 | 58 | 1009.4 |
| 20260506150242 | 63 | 28 | 0.0 | 18.0 | 0.00 | 0.58 | 0.58 | 57 | 1009.4 |
| 20260506145742 | 63 | 300 | 0.0 | 0.0 | 0.00 | 0.58 | 0.58 | 60 | 1009.4 |
| 20260506145242 | 63 | 300 | 0.0 | 0.0 | 0.00 | 0.58 | 0.58 | 59 | 1009.4 |
| 20260506144742 | 63 | 300 | 0.0 | 19.0 | 0.00 | 0.58 | 0.58 | 60 | 1009.4 |
| 20260506144242 | 63 | 323 | 0.0 | 15.0 | 0.00 | 0.58 | 0.58 | 61 | 1009.4 |
| 20260506143742 | 62 | 307 | 12.0 | 20.0 | 0.00 | 0.58 | 0.58 | 61 | 1009.5 |
| 20260506143242 | 62 | 300 | 3.0 | 20.0 | 0.00 | 0.58 | 0.58 | 60 | 1009.5 |
| 20260506142742 | 62 | 300 | 0.0 | 19.0 | 0.00 | 0.58 | 0.58 | 60 | 1009.4 |
| 20260506142242 | 62 | 300 | 0.0 | 2.0 | 0.00 | 0.58 | 0.58 | 60 | 1009.5 |
| 20260506141742 | 63 | 300 | 2.0 | 6.0 | 0.00 | 0.58 | 0.58 | 58 | 1009.6 |
| 20260506141242 | 62 | 300 | 0.0 | 18.0 | 0.00 | 0.58 | 0.58 | 61 | 1009.5 |
| 20260506140742 | 62 | 300 | 0.0 | 0.0 | 0.00 | 0.58 | 0.58 | 59 | 1009.5 |
| 20260506140242 | 63 | 300 | 0.0 | 0.0 | 0.00 | 0.58 | 0.58 | 60 | 1009.6 |
| 20260506135742 | 63 | 300 | 0.0 | 1.0 | 0.00 | 0.58 | 0.58 | 59 | 1009.6 |
| 20260506135242 | 63 | 300 | 0.0 | 1.0 | 0.00 | 0.58 | 0.58 | 57 | 1009.7 |
| 20260506134742 | 63 | 300 | 0.0 | 0.0 | 0.00 | 0.58 | 0.58 | 58 | 1009.8 |
| 20260506134242 | 63 | 300 | 0.0 | 0.0 | 0.00 | 0.58 | 0.58 | 57 | 1009.8 |
| 20260506133742 | 62 | 300 | 0.0 | 0.0 | 0.00 | 0.58 | 0.58 | 56 | 1009.9 |
| 20260506133242 | 63 | 300 | 0.0 | 0.0 | 0.00 | 0.58 | 0.58 | 55 | 1009.9 |
| 20260506132742 | 63 | 300 | 0.0 | 0.0 | 0.00 | 0.58 | 0.58 | 54 | 1010.0 |
| 20260506132242 | 63 | 300 | 0.0 | 0.0 | 0.00 | 0.58 | 0.58 | 57 | 1010.0 |
| 20260506131742 | 63 | 300 | 0.0 | 0.0 | 0.00 | 0.58 | 0.58 | 58 | 1010.0 |
| 20260506131242 | 62 | 300 | 0.0 | 7.0 | 0.00 | 0.58 | 0.58 | 58 | 1010.0 |
| 20260506130742 | 63 | 300 | 0.0 | 17.0 | 0.00 | 0.58 | 0.58 | 59 | 1010.0 |
| 20260506130242 | 62 | 317 | 14.0 | 16.0 | 0.00 | 0.58 | 0.58 | 58 | 1010.0 |
| 20260506125742 | 63 | 300 | 0.0 | 15.0 | 0.00 | 0.58 | 0.58 | 59 | 1010.0 |
| 20260506125242 | 62 | 299 | 11.0 | 18.0 | 0.00 | 0.58 | 0.58 | 59 | 1009.9 |
| 20260506124742 | 62 | 300 | 1.0 | 20.0 | 0.00 | 0.58 | 0.58 | 57 | 1009.9 |
| 20260506124242 | 63 | 300 | 0.0 | 0.0 | 0.00 | 0.58 | 0.58 | 57 | 1010.0 |
| 20260506123742 | 63 | 300 | 0.0 | 0.0 | 0.00 | 0.58 | 0.58 | 58 | 1009.9 |
| 20260506123242 | 63 | 300 | 0.0 | 0.0 | 0.00 | 0.58 | 0.58 | 59 | 1009.9 |
| 20260506122742 | 63 | 300 | 0.0 | 0.0 | 0.00 | 0.58 | 0.58 | 59 | 1010.0 |
| 20260506122242 | 63 | 300 | 0.0 | 0.0 | 0.00 | 0.58 | 0.58 | 59 | 1009.9 |
| 20260506121742 | 63 | 300 | 0.0 | 5.0 | 0.00 | 0.58 | 0.58 | 61 | 1010.0 |
| 20260506121242 | 62 | 300 | 0.0 | 0.0 | 0.00 | 0.58 | 0.58 | 62 | 1010.0 |
| 20260506120742 | 62 | 300 | 0.0 | 18.0 | 0.00 | 0.58 | 0.58 | 61 | 1010.0 |
| 20260506120243 | 62 | 300 | 0.0 | 14.0 | 0.00 | 0.58 | 0.58 | 63 | 1010.0 |
| 20260506115743 | 62 | 300 | 0.0 | 15.0 | 0.00 | 0.58 | 0.58 | 61 | 1010.0 |
| 20260506115243 | 62 | 324 | 0.0 | 12.0 | 0.00 | 0.58 | 0.58 | 61 | 1010.1 |
| 20260506114743 | 63 | 300 | 0.0 | 0.0 | 0.00 | 0.58 | 0.58 | 61 | 1010.0 |
| 20260506114243 | 63 | 300 | 0.0 | 0.0 | 0.00 | 0.58 | 0.58 | 60 | 1010.1 |
| 20260506113743 | 63 | 300 | 0.0 | 0.0 | 0.00 | 0.58 | 0.58 | 61 | 1010.0 |
| 20260506113243 | 62 | 300 | 0.0 | 0.0 | 0.00 | 0.58 | 0.58 | 62 | 1010.0 |
| 20260506112743 | 62 | 300 | 0.0 | 0.0 | 0.00 | 0.58 | 0.58 | 62 | 1010.0 |
| 20260506112243 | 62 | 300 | 0.0 | 0.0 | 0.00 | 0.58 | 0.58 | 63 | 1010.1 |
| 20260506111743 | 62 | 300 | 0.0 | 6.0 | 0.00 | 0.58 | 0.58 | 62 | 1010.2 |
| 20260506111243 | 62 | 300 | 0.0 | 0.0 | 0.00 | 0.58 | 0.58 | 63 | 1010.1 |
| 20260506110743 | 62 | 300 | 0.0 | 0.0 | 0.00 | 0.58 | 0.58 | 61 | 1010.1 |
| 20260506110243 | 62 | 300 | 0.0 | 0.0 | 0.00 | 0.58 | 0.58 | 60 | 1010.2 |
| 20260506105743 | 62 | 300 | 0.0 | 0.0 | 0.00 | 0.58 | 0.58 | 60 | 1010.2 |